Regional Weather Roundup
Issued by NWS Charleston, WV

Home | Current Version | Previous Version | Text Only | Print | Product List | Glossary On
Versions: 1 2 3 4 5 6 7 8 9 10 11 12 13 14 15 16 17 18 19 20 21 22 23 24 25 26 27 28 29 30 31 32 33 34 35 36 37 38 39 40 41 42 43 44 45 46 47 48 49 50
000
ASUS41 KRLX 111910
RWRRLX
West Virginia Regional Weather Roundup
National Weather Service Charleston WV
200 PM EST THU FEB 11 2016

Note: "fair" indicates few or no clouds below 12,000 feet with no
significant weather and/or obstructions to visibility.

WVZ003-112000-
Northern Panhandle of West Virginia

CITY           SKY/WX    TMP DP  RH WIND       PRES   REMARKS
WHEELING       FLURRIES  18   2  49 W15G21    30.16S WCI   4
$$

WVZ009-112000-
Northwest West Virginia

CITY           SKY/WX    TMP DP  RH WIND       PRES   REMARKS
PARKERSBURG    CLOUDY    20   4  50 W12G17    30.25F WCI   8
$$

WVZ006-112000-
Western West Virginia

CITY           SKY/WX    TMP DP  RH WIND       PRES   REMARKS
HUNTINGTON       N/A     28   7  41 CALM      30.23F
$$

WVZ015-112000-
West Central West Virginia

CITY           SKY/WX    TMP DP  RH WIND       PRES   REMARKS
CHARLESTON     PTSUNNY   22   3  44 W8        30.22F
$$

WVZ022-031-112000-
North Central West Virginia

CITY           SKY/WX    TMP DP  RH WIND       PRES   REMARKS
CLARKSBURG     CLOUDY    18   1  47 W13       30.17S WCI   5
MORGANTOWN     CLOUDY    18   1  47 W12G18    30.16S WCI   5
$$

WVZ025-035-042-045-112000-
Southern West Virginia

CITY           SKY/WX    TMP DP  RH WIND       PRES   REMARKS
BECKLEY          N/A     19   4  51 NW10      30.08F WCI   7
LOGAN            N/A     23   7  50 CALM      30.15F
BLUEFIELD        N/A     19   0  43 W12G17    30.05F WCI   7
LEWISBURG        N/A     22   4  45 W8G16     30.08F
$$

WVZ047-112000-
Northern Mountains of West Virginia

CITY           SKY/WX    TMP DP  RH WIND       PRES   REMARKS
ELKINS         CLOUDY    15  -1  49 W10G18    30.10S WCI   2
$$

WVZ052-112000-
Eastern Panhandle of West Virginia

CITY           SKY/WX    TMP DP  RH WIND       PRES   REMARKS
MARTINSBURG      N/A     24   0  35 NW16G22   30.10S
PETERSBURG       N/A     23   2  40 W17G26    30.14R WCI  10
$$



USA.gov is the U.S. government's official web portal to all federal, state and local government web resources and services.